Weather History for Morgantown, WV

Change the Weather History Date:

Thursday, January 31, 2013

  Actual Average Record
Temperature  
Mean Temperature 36 °F 32 °F  
Max Temperature 48 °F 40 °F 75 °F (2002)
Min Temperature 24 °F 24 °F -4 °F (1965)
Degree Days  
Heating Degree Days 29 33  
Month to date heating degree days 926 1045  
Since 1 July heating degree days 2784 3027  
Cooling Degree Days 0 0  
Month to date cooling degree days 0 0  
Year to date cooling degree days 0 0  
Moisture  
Dew Point 22 °F    
Average Humidity 68    
Maximum Humidity 86    
Minimum Humidity 50    
Precipitation  
Precipitation 0.11 in 0.09 in 1.20 in (1950)
Month to date precipitation 3.14 2.81  
Year to date precipitation 3.14 2.81  
Sea Level Pressure  
Sea Level Pressure 29.70 in    
Wind  
Wind Speed 10 mph (West)    
Max Wind Speed 24 mph    
Max Gust Speed 41 mph    
Visibility 7 miles    
Events Fog , Rain , Snow    
T = Trace of Precipitation, MM = Missing Value Source: NWS Daily Summary

Daily Weather History Graph

Daily Weather History Graph

Search for Another Location

Airport:

Trip Planner

Search our weather history database for the weather conditions in past years. The results will help you decide how hot, cold, wet, or windy it might be!

Date:

Astronomy

Jan. 31, 2013 Rise Set
Actual Time 7:28 AM EST 5:38 PM EST
Civil Twilight 6:59 AM EST 6:07 PM EST
Nautical Twilight 6:27 AM EST 6:39 PM EST
Astronomical Twilight 5:55 AM EST 7:11 PM EST
Moon 10:38 PM EST (1/31) 9:27 AM EST (1/31)
Length of Visible Light 11h 07m
Length of Day
10h 10m
Waning Gibbous, 80% of the Moon is Illuminated
Jan 31
Waning Gibbous
Feb 3
Last Quarter
Feb 10
New
Feb 17
First Quarter
Feb 25
Full

Hourly Weather History & Observations

Time (EST) Temp. Windchill Dew Point Humidity Pressure Visibility Wind Dir Wind Speed Gust Speed Precip Events Conditions
12:49 AM 46.4 °F 42.4 °F 42.8 °F 87% 29.28 in 10.0 mi SSW 8.1 mph - 0.04 in Rain Light Rain
12:53 AM 46.9 °F - 43.0 °F 86% 29.29 in 10.0 mi SSW 6.9 mph - 0.04 in   Overcast
1:08 AM 41.0 °F 31.9 °F 37.4 °F 87% 29.33 in 3.0 mi WNW 19.6 mph 41.4 mph 0.05 in Rain Heavy Rain
1:19 AM 42.8 °F 36.2 °F 33.8 °F 70% 29.34 in 10.0 mi West 12.7 mph 31.1 mph 0.05 in Rain Light Rain
1:41 AM 41.0 °F 33.5 °F 35.6 °F 81% 29.36 in 10.0 mi West 13.8 mph 21.9 mph 0.05 in Rain Light Rain
1:53 AM 39.9 °F 32.5 °F 34.0 °F 79% 29.40 in 10.0 mi WNW 12.7 mph 26.5 mph 0.05 in Rain Light Rain
2:53 AM 36.0 °F 26.7 °F 30.0 °F 79% 29.45 in 10.0 mi West 15.0 mph 33.4 mph 0.02 in   Overcast
3:53 AM 35.1 °F 25.5 °F 27.0 °F 72% 29.48 in 10.0 mi West 15.0 mph 26.5 mph 0.00 in   Overcast
4:05 AM 35.6 °F 25.9 °F 24.8 °F 65% 29.49 in 10.0 mi West 16.1 mph 32.2 mph N/A   Overcast
4:53 AM 33.1 °F 24.4 °F 24.1 °F 70% 29.52 in 10.0 mi WSW 11.5 mph 26.5 mph N/A   Overcast
5:53 AM 30.9 °F 21.7 °F 26.1 °F 82% 29.57 in 6.0 mi WNW 11.5 mph 20.7 mph 0.00 in Snow Light Snow
6:32 AM 30.2 °F 20.2 °F 21.2 °F 69% 29.59 in 10.0 mi West 12.7 mph 26.5 mph 0.00 in   Overcast
6:53 AM 30.9 °F 22.2 °F 23.0 °F 72% 29.61 in 9.0 mi WSW 10.4 mph 18.4 mph 0.00 in   Overcast
7:53 AM 30.9 °F 21.7 °F 19.9 °F 64% 29.65 in 10.0 mi West 11.5 mph 25.3 mph N/A   Overcast
8:53 AM 30.0 °F 19.1 °F 19.9 °F 66% 29.68 in 6.0 mi WNW 15.0 mph 26.5 mph N/A   Haze
8:56 AM 28.4 °F 16.6 °F 21.2 °F 74% 29.67 in 1.5 mi WNW 16.1 mph 26.5 mph 0.00 in Snow Light Snow
9:08 AM 28.4 °F 18.5 °F 19.4 °F 69% 29.68 in 3.0 mi West 11.5 mph 23.0 mph 0.00 in Snow Light Snow
9:53 AM 28.9 °F 18.6 °F 17.1 °F 61% 29.71 in 10.0 mi West 12.7 mph 21.9 mph 0.00 in   Overcast
10:53 AM 28.0 °F 14.9 °F 15.1 °F 58% 29.75 in 10.0 mi West 19.6 mph 29.9 mph N/A   Overcast
11:53 AM 28.9 °F 19.8 °F 18.0 °F 64% 29.77 in 10.0 mi WSW 10.4 mph 24.2 mph N/A   Overcast
12:05 PM 28.4 °F 18.0 °F 19.4 °F 69% 29.74 in 8.0 mi West 12.7 mph 21.9 mph N/A   Overcast
12:12 PM 26.6 °F 14.7 °F 21.2 °F 80% 29.76 in 1.5 mi WNW 15.0 mph 24.2 mph 0.00 in Snow Light Snow
12:20 PM 26.6 °F 16.2 °F 21.2 °F 80% 29.74 in 0.5 mi West 11.5 mph 24.2 mph 0.00 in Fog , Snow Light Snow
12:26 PM 26.6 °F 16.8 °F 21.2 °F 80% 29.75 in 2.5 mi WSW 10.4 mph 19.6 mph 0.00 in Snow Light Snow
12:49 PM 26.6 °F 18.2 °F 21.2 °F 80% 29.75 in 0.5 mi West 8.1 mph 20.7 mph 0.00 in Fog , Snow Light Snow
12:53 PM 26.1 °F 16.8 °F 21.9 °F 84% 29.78 in 0.8 mi West 9.2 mph 19.6 mph 0.00 in Snow Light Snow
12:59 PM 26.6 °F 16.8 °F 21.2 °F 80% 29.75 in 2.0 mi West 10.4 mph 18.4 mph 0.00 in Snow Light Snow
1:09 PM 26.6 °F 19.1 °F 21.2 °F 80% 29.75 in 1.0 mi Variable 6.9 mph 19.6 mph 0.00 in Snow Light Snow
1:32 PM 26.6 °F 19.1 °F 21.2 °F 80% 29.74 in 3.0 mi Variable 6.9 mph - 0.00 in Snow Light Snow
1:39 PM 28.4 °F 22.2 °F 19.4 °F 69% 29.74 in 6.0 mi Variable 5.8 mph - 0.00 in   Haze
1:53 PM 28.9 °F 21.9 °F 19.0 °F 67% 29.77 in 10.0 mi Variable 6.9 mph 20.7 mph 0.00 in   Overcast
1:59 PM 28.4 °F 18.0 °F 19.4 °F 69% 29.75 in 2.0 mi West 12.7 mph 20.7 mph 0.00 in Snow Light Snow
2:02 PM 26.6 °F 15.7 °F 19.4 °F 74% 29.76 in 0.8 mi WNW 12.7 mph 21.9 mph 0.00 in Snow Light Snow
2:05 PM 24.8 °F 13.4 °F 21.2 °F 86% 29.76 in 0.2 mi WNW 12.7 mph 21.9 mph 0.00 in Fog , Snow Light Snow
2:12 PM 24.8 °F 12.9 °F 21.2 °F 86% 29.77 in 0.2 mi West 13.8 mph 23.0 mph 0.00 in Fog , Snow Light Snow
2:18 PM 26.6 °F 13.8 °F 19.4 °F 74% 29.77 in 1.0 mi WSW 17.3 mph 28.8 mph 0.00 in Snow Light Snow
2:46 PM 26.6 °F 16.2 °F 17.6 °F 69% 29.79 in 7.0 mi West 11.5 mph 23.0 mph 0.00 in   Overcast
2:53 PM 27.0 °F 17.3 °F 15.1 °F 61% 29.83 in 10.0 mi West 10.4 mph 28.8 mph 0.00 in   Mostly Cloudy
3:53 PM 26.1 °F 16.8 °F 10.9 °F 53% 29.87 in 10.0 mi WSW 9.2 mph 21.9 mph N/A   Overcast
4:53 PM 26.1 °F 19.4 °F 10.0 °F 51% 29.88 in 10.0 mi Variable 5.8 mph - N/A   Overcast
5:53 PM 26.1 °F 18.4 °F 10.0 °F 51% 29.88 in 10.0 mi SW 6.9 mph - N/A   Partly Cloudy
6:53 PM 26.1 °F 15.0 °F 10.0 °F 51% 29.89 in 10.0 mi SW 12.7 mph 21.9 mph N/A   Partly Cloudy
7:53 PM 25.0 °F 17.1 °F 12.9 °F 60% 29.90 in 10.0 mi Variable 6.9 mph - N/A   Scattered Clouds
9:53 PM 25.0 °F 16.3 °F 17.1 °F 72% 29.91 in 6.0 mi SW 8.1 mph - 0.00 in Snow Light Snow
10:28 PM 24.8 °F 17.9 °F 17.6 °F 74% 29.86 in 10.0 mi SSW 5.8 mph - 0.00 in   Overcast
10:53 PM 25.0 °F 18.1 °F 18.0 °F 75% 29.90 in 10.0 mi SSW 5.8 mph - 0.00 in   Overcast
11:10 PM 24.8 °F 16.9 °F 19.4 °F 80% 29.84 in 10.0 mi SSW 6.9 mph - N/A   Mostly Cloudy
11:25 PM 24.8 °F 19.1 °F 19.4 °F 80% 29.84 in 10.0 mi SSW 4.6 mph - N/A   Overcast
11:50 PM 24.8 °F 19.1 °F 19.4 °F 80% 29.83 in 5.0 mi SW 4.6 mph - 0.00 in Snow Light Snow
11:53 PM 25.0 °F 19.3 °F 19.9 °F 81% 29.87 in 4.0 mi Variable 4.6 mph - 0.00 in Snow Light Snow